Syracuse, NY

11:36 PM EDT on August 23, 2019 (GMT -0400)
Syracuse Hancock International

Weather History for KSYR - June, 2019

Change the Weather History Date:

Saturday, June 1, 2019

  Actual Average Record
Temperature  
Mean Temperature 66 °F 62 °F  
Max Temperature 80 °F 74 °F 91 °F (1954)
Min Temperature 52 °F 52 °F 34 °F (1945)
Degree Days  
Heating Degree Days 0 4  
Month to date heating degree days 0 4  
Since 1 June heating degree days 0 4  
Since 1 July heating degree days 6724 6594  
Cooling Degree Days 1 2  
Month to date cooling degree days 1 2  
Year to date cooling degree days 14 32  
Since 1 June cooling degree days 1 2  
Growing Degree Days 16 (Base 50)    
Moisture  
Dew Point 56 °F    
Average Humidity 72    
Maximum Humidity 93    
Minimum Humidity 50    
Precipitation  
Precipitation 0.20 in 0.11 in 1.33 in (2018)
Month to date precipitation 0.20 0.11  
Year to date precipitation 17.85 14.04  
Snow  
Snow 0.00 in 0.00 in 0.00 in (2002)
Month to date snowfall 0.0 0.0  
Since 1 June snowfall 0.0 0.0  
Since 1 July snowfall 115.0 123.8  
Snow Depth 0.00 in    
Sea Level Pressure  
Sea Level Pressure 29.75 in    
Wind  
Wind Speed 5 mph (ENE)    
Max Wind Speed 21 mph    
Max Gust Speed 26 mph    
Visibility 10 miles    
Events Rain , Thunderstorm    
T = Trace of Precipitation, MM = Missing Value Source: NWS Daily Summary

Daily Weather History Graph

Daily Weather History Graph

Search for Another Location

Airport or City:

Astronomy

Jun. 01, 2019 Rise Set
Actual Time 5:27 AM EDT 8:37 PM EDT
Civil Twilight 4:53 AM EDT 9:11 PM EDT
Nautical Twilight 4:08 AM EDT 9:56 PM EDT
Astronomical Twilight 3:15 AM EDT 10:49 PM EDT
Moon 4:36 AM EDT (6/1) 6:44 PM EDT (6/1)
Length of Visible Light 16h 18m
Length of Day
15h 09m
Waning Crescent, 4% of the Moon is Illuminated
Jun 1
Waning Crescent
Jun 3
New
Jun 10
First Quarter
Jun 17
Full
Jun 25
Last Quarter

Hourly Weather History & Observations

Time (EDT) Temp. Dew Point Humidity Pressure Visibility Wind Dir Wind Speed Gust Speed Precip Events Conditions
12:54 AM 53.1 °F 48.0 °F 83% 29.81 in 10.0 mi ESE 5.8 mph - N/A   Partly Cloudy
1:54 AM 53.1 °F 48.0 °F 83% 29.80 in 10.0 mi East 4.6 mph - N/A   Partly Cloudy
2:54 AM 53.1 °F 48.0 °F 83% 29.80 in 10.0 mi East 3.5 mph - N/A   Scattered Clouds
3:54 AM 54.0 °F 48.0 °F 80% 29.81 in 10.0 mi East 3.5 mph - N/A   Overcast
4:54 AM 54.0 °F 50.0 °F 86% 29.79 in 10.0 mi ENE 4.6 mph - N/A   Mostly Cloudy
5:54 AM 54.0 °F 50.0 °F 86% 29.79 in 10.0 mi East 8.1 mph - N/A   Mostly Cloudy
6:54 AM 55.9 °F 50.0 °F 80% 29.79 in 10.0 mi ENE 3.5 mph - N/A   Overcast
7:54 AM 57.0 °F 50.0 °F 77% 29.79 in 10.0 mi North 4.6 mph - N/A Thunderstorm Overcast
8:20 AM 57.0 °F 51.1 °F 81% 29.79 in 10.0 mi East 3.5 mph - N/A   Overcast
8:54 AM 63.0 °F 53.1 °F 70% 29.78 in 10.0 mi ESE 3.5 mph - N/A   Mostly Cloudy
9:54 AM 66.9 °F 55.0 °F 66% 29.79 in 10.0 mi Calm Calm - N/A   Overcast
10:54 AM 71.1 °F 55.9 °F 59% 29.78 in 10.0 mi Calm Calm - N/A   Mostly Cloudy
11:54 AM 77.0 °F 57.9 °F 52% 29.76 in 10.0 mi SW 12.7 mph - N/A   Mostly Cloudy
12:54 PM 78.1 °F 59.0 °F 52% 29.75 in 10.0 mi West 8.1 mph - N/A   Mostly Cloudy
1:54 PM 78.1 °F 60.1 °F 54% 29.74 in 10.0 mi WSW 10.4 mph - N/A   Mostly Cloudy
2:54 PM 79.0 °F 60.1 °F 52% 29.72 in 10.0 mi NW 5.8 mph - N/A   Mostly Cloudy
3:54 PM 79.0 °F 60.1 °F 52% 29.71 in 10.0 mi Variable 4.6 mph - N/A   Overcast
4:54 PM 79.0 °F 61.0 °F 54% 29.70 in 10.0 mi NW 8.1 mph - N/A   Overcast
5:54 PM 77.0 °F 60.1 °F 56% 29.70 in 10.0 mi WNW 5.8 mph - N/A   Overcast
6:54 PM 75.0 °F 60.1 °F 60% 29.70 in 10.0 mi NW 6.9 mph - N/A   Overcast
7:54 PM 72.0 °F 60.1 °F 66% 29.70 in 10.0 mi North 5.8 mph - N/A   Overcast
8:54 PM 70.0 °F 59.0 °F 68% 29.70 in 10.0 mi North 3.5 mph - N/A   Overcast
9:11 PM 70.0 °F 59.0 °F 68% 29.70 in 10.0 mi NE 3.5 mph - N/A Thunderstorm Thunderstorm
9:37 PM 66.9 °F 60.1 °F 79% 29.75 in 7.0 mi West 19.6 mph 26.5 mph N/A Rain , Thunderstorm Light Thunderstorms and Rain
9:54 PM 64.9 °F 61.0 °F 87% 29.74 in 2.0 mi Calm Calm - 0.18 in Rain , Thunderstorm Heavy Thunderstorms and Rain
10:14 PM 64.0 °F 60.1 °F 87% 29.73 in 9.0 mi Calm Calm - 0.20 in Rain , Thunderstorm Light Thunderstorms and Rain
10:22 PM 64.0 °F 61.0 °F 90% 29.73 in 10.0 mi SE 3.5 mph - 0.20 in   Overcast
10:54 PM 63.0 °F 61.0 °F 93% 29.69 in 10.0 mi SE 8.1 mph - 0.20 in   Overcast
11:54 PM 63.0 °F 60.1 °F 90% 29.68 in 10.0 mi ESE 3.5 mph - N/A   Overcast